TimeCDT,TemperatureF,Dew PointF,Humidity,Sea Level PressureIn,VisibilityMPH,Wind Direction,Wind SpeedMPH,Gust SpeedMPH,PrecipitationIn,Events,Conditions,WindDirDegrees,DateUTC
12:04 AM,30.2,26.6,86,30.25,9.0,East,8.1,-,N/A,Snow,Light Snow,80,2012-10-29 05:04:00
12:29 AM,30.2,26.6,86,30.25,9.0,ENE,5.8,-,N/A,Snow,Light Snow,70,2012-10-29 05:29:00
12:39 AM,30.2,26.6,86,30.25,6.0,East,5.8,-,N/A,Snow,Light Snow,80,2012-10-29 05:39:00
12:55 AM,29.8,27.0,89,30.25,5.0,ENE,5.8,-,0.00,Snow,Light Snow,60,2012-10-29 05:55:00
12:58 AM,30.2,26.6,86,30.25,4.0,ENE,5.8,-,N/A,Snow,Light Snow,70,2012-10-29 05:58:00
1:01 AM,30.2,26.6,86,30.24,4.0,ENE,5.8,-,N/A,Snow,Light Snow,70,2012-10-29 06:01:00
1:15 AM,30.2,28.4,93,30.24,8.0,ENE,5.8,-,N/A,Snow,Light Snow,60,2012-10-29 06:15:00
1:24 AM,30.2,28.4,93,30.24,10.0,ENE,6.9,-,N/A,,Scattered Clouds,70,2012-10-29 06:24:00
1:55 AM,30.9,28.6,91,30.23,10.0,ENE,5.8,-,0.00,,Scattered Clouds,70,2012-10-29 06:55:00
2:04 AM,32.0,28.4,87,30.22,10.0,East,6.9,-,N/A,,Partly Cloudy,80,2012-10-29 07:04:00
2:17 AM,32.0,28.4,87,30.22,8.0,East,8.1,-,N/A,,Mostly Cloudy,80,2012-10-29 07:17:00
2:20 AM,32.0,28.4,87,30.22,8.0,East,8.1,-,N/A,,Scattered Clouds,80,2012-10-29 07:20:00
2:29 AM,32.0,28.4,87,30.22,10.0,East,6.9,-,N/A,,Mostly Cloudy,80,2012-10-29 07:29:00
2:55 AM,31.6,29.1,90,30.22,10.0,ENE,6.9,-,0.00,,Overcast,70,2012-10-29 07:55:00
3:05 AM,32.0,28.4,87,30.22,10.0,ENE,8.1,-,N/A,,Overcast,70,2012-10-29 08:05:00
3:30 AM,32.0,30.2,93,30.21,10.0,East,8.1,-,N/A,,Mostly Cloudy,80,2012-10-29 08:30:00
3:55 AM,32.2,29.7,90,30.20,10.0,East,6.9,-,0.00,,Mostly Cloudy,80,2012-10-29 08:55:00
4:55 AM,32.5,30.0,90,30.19,10.0,East,9.2,-,N/A,,Overcast,90,2012-10-29 09:55:00
5:55 AM,32.7,30.2,90,30.18,10.0,East,9.2,-,N/A,,Overcast,90,2012-10-29 10:55:00
6:55 AM,33.3,30.4,89,30.18,10.0,East,9.2,-,N/A,,Overcast,90,2012-10-29 11:55:00
7:55 AM,33.8,30.6,88,30.19,10.0,East,6.9,-,N/A,,Overcast,90,2012-10-29 12:55:00
8:55 AM,34.3,31.1,88,30.20,10.0,East,5.8,-,N/A,,Overcast,80,2012-10-29 13:55:00
9:55 AM,36.0,31.3,83,30.19,10.0,East,9.2,-,N/A,,Overcast,100,2012-10-29 14:55:00
10:55 AM,38.5,31.8,77,30.19,10.0,SE,9.2,-,N/A,,Overcast,130,2012-10-29 15:55:00
11:55 AM,42.3,32.5,68,30.19,10.0,SSE,11.5,-,N/A,,Overcast,150,2012-10-29 16:55:00
12:55 PM,46.4,32.4,58,30.18,10.0,SSE,13.8,-,N/A,,Overcast,150,2012-10-29 17:55:00
1:55 PM,47.1,32.4,57,30.17,10.0,SSE,12.7,-,N/A,,Clear,150,2012-10-29 18:55:00
2:55 PM,48.9,33.1,54,30.16,10.0,SE,11.5,-,N/A,,Clear,140,2012-10-29 19:55:00
3:55 PM,49.3,33.1,54,30.15,10.0,SE,11.5,-,N/A,,Clear,140,2012-10-29 20:55:00
4:55 PM,48.4,33.3,56,30.17,10.0,SSE,11.5,-,N/A,,Clear,160,2012-10-29 21:55:00
5:55 PM,46.0,33.3,61,30.16,10.0,SE,8.1,-,N/A,,Clear,140,2012-10-29 22:55:00
6:55 PM,41.0,32.0,70,30.17,10.0,ESE,8.1,-,N/A,,Clear,120,2012-10-29 23:55:00
7:55 PM,37.6,30.6,76,30.17,10.0,ESE,8.1,-,N/A,,Clear,120,2012-10-30 00:55:00
8:55 PM,36.1,29.7,77,30.18,10.0,ESE,8.1,-,N/A,,Clear,120,2012-10-30 01:55:00
9:55 PM,34.9,28.2,77,30.17,10.0,SE,10.4,-,N/A,,Clear,130,2012-10-30 02:55:00
10:55 PM,34.9,27.9,76,30.18,10.0,SE,10.4,-,N/A,,Clear,130,2012-10-30 03:55:00
11:55 PM,36.5,27.3,69,30.19,10.0,SE,10.4,-,N/A,,Clear,140,2012-10-30 04:55:00